Lapse_Rate
6.3 6.6 7.3 6.4 6.0 5.7 5.7 5.6 5.4 5.1 5.0 5.1 5.1 5.0 5.0 5.1 4.6 4.6 5.0 5.3 5.6 5.8 6.5 7.0 6.8 6.9 6.7 6.5 6.3 6.1 5.7 5.8 6.1 5.4 5.2 6.1 6.9 7.1 6.8 6.2 5.9 6.1 6.0
6.8 7.4 7.3 6.4 6.0 5.7 5.6 5.5 5.4 5.1 4.9 5.3 5.2 5.3 5.1 5.2 5.0 5.0 5.5 5.4 5.8 6.4 7.1 7.0 6.4 6.4 6.5 6.5 6.2 5.8 5.3 5.5 5.5 5.1 5.1 5.4 5.9 6.1 6.3 6.3 6.3 6.6 6.0
6.3 7.6 7.4 6.2 5.9 5.7 5.7 5.5 5.3 5.2 5.2 5.6 5.7 5.3 5.4 5.5 5.2 5.5 6.0 5.8 6.2 6.8 6.8 7.0 6.8 6.0 6.0 6.1 6.1 5.3 5.4 5.9 6.2 6.1 5.3 5.1 5.6 6.4 6.4 6.1 6.3 6.4 5.5
6.3 6.8 6.7 5.9 5.9 5.6 5.7 5.5 5.5 5.4 5.5 5.6 5.9 6.3 5.7 5.8 5.5 5.6 6.3 6.3 6.7 6.8 6.6 6.3 5.8 5.8 5.7 5.6 5.5 5.3 5.9 6.1 6.4 6.6 6.4 6.3 6.6 6.7 6.2 5.9 5.7 5.2 5.0
4.9 5.6 6.8 5.8 6.0 5.4 5.9 5.7 5.6 5.6 5.6 5.7 6.0 6.6 5.7 5.9 5.9 5.6 6.4 6.5 6.3 6.6 6.2 5.8 5.0 4.8 5.1 5.2 5.1 5.6 6.0 6.3 6.1 6.6 6.4 5.5 5.7 5.6 5.4 5.1 5.0 5.1 5.0
4.7 5.0 6.7 6.7 6.5 5.7 5.6 5.9 5.7 5.7 5.6 5.7 6.0 6.3 7.0 5.9 6.1 5.8 6.1 6.3 5.7 5.7 5.9 5.5 5.0 4.5 4.5 4.6 4.8 5.5 5.8 6.1 6.2 5.9 5.8 5.7 5.3 5.4 5.2 5.0 5.0 5.0 5.1
5.7 6.4 6.1 6.4 6.5 6.7 5.8 5.7 5.9 5.7 5.7 5.8 6.1 6.3 6.5 6.6 6.0 5.6 5.9 6.1 5.8 5.1 5.4 5.1 4.8 4.5 4.4 4.5 4.7 4.9 5.4 5.6 5.6 5.4 5.2 5.3 5.4 5.6 5.5 5.3 5.3 5.3 5.2
4.4 5.5 5.7 6.3 6.6 6.6 6.2 5.6 5.6 5.9 6.0 5.9 6.2 6.3 6.3 6.5 6.0 5.5 5.3 5.9 5.8 5.5 5.0 4.7 4.6 4.4 4.4 4.5 4.6 4.5 5.2 5.2 5.0 4.8 4.9 5.0 5.5 5.5 5.4 5.3 5.2 5.3 5.3
4.7 4.9 5.3 5.5 6.0 6.2 6.4 6.4 5.9 5.7 5.9 6.0 6.2 6.3 6.5 6.1 5.9 5.6 5.3 5.6 6.0 5.7 5.2 4.5 4.5 4.4 4.4 4.4 4.3 4.0 4.7 5.2 5.0 4.6 5.0 5.1 5.5 5.6 5.4 5.2 5.2 5.3 5.3
3.5 3.9 5.0 5.3 5.5 6.3 6.0 6.1 5.9 5.8 5.8 5.7 5.9 6.0 5.7 5.6 5.6 5.9 5.7 5.6 5.9 5.8 5.4 4.4 4.2 4.2 4.1 4.2 3.9 3.9 4.3 4.9 4.9 5.1 5.1 5.1 5.7 5.7 5.3 5.2 5.2 5.2 5.3
3.1 2.7 3.2 5.1 5.6 5.8 6.7 6.1 6.3 6.0 5.7 5.7 5.7 5.7 5.6 4.9 4.9 5.1 5.5 5.3 5.7 5.8 5.5 4.9 4.2 4.1 4.0 3.8 3.6 3.7 4.1 4.4 4.7 5.0 5.2 5.6 6.0 5.9 5.5 5.2 5.2 5.2 5.1
3.6 2.7 1.9 2.5 4.0 5.5 6.0 5.8 5.4 5.5 5.4 5.2 5.0 4.8 4.7 4.6 4.6 5.0 5.2 5.1 5.3 5.6 5.7 5.1 4.3 4.0 3.7 3.2 3.2 3.5 3.4 4.0 4.3 4.8 4.8 5.4 6.2 6.0 5.6 5.3 5.1 5.2 5.3
4.8 3.1 2.4 1.6 2.4 3.4 4.8 4.6 4.7 4.5 4.9 4.8 4.9 4.7 4.2 4.7 4.5 4.6 4.2 4.4 4.6 5.0 4.8 5.1 4.4 3.5 2.9 2.6 2.5 2.6 3.5 3.8 4.3 4.9 5.2 5.5 6.0 6.2 5.8 5.5 5.2 5.2 5.3
2.6 3.1 3.3 2.7 1.7 1.7 2.4 3.1 4.4 3.9 3.6 4.7 5.2 5.2 4.6 4.6 4.6 4.1 3.9 3.8 3.8 4.0 3.6 3.8 3.7 3.2 2.7 2.9 3.1 2.9 3.5 4.2 5.0 5.6 5.3 5.6 5.5 5.9 5.8 5.5 5.3 5.2 5.2
3.6 3.4 3.2 3.3 2.6 2.1 1.5 1.3 2.2 3.7 3.9 4.6 4.8 5.9 5.7 4.9 4.9 4.7 4.4 4.1 3.7 3.6 3.9 3.4 3.4 3.5 2.8 2.7 3.2 3.4 4.0 4.4 5.3 5.6 5.1 5.4 5.3 5.3 5.4 5.6 5.5 5.3 5.3
4.6 3.9 3.9 4.0 3.8 3.8 2.6 1.8 1.0 2.4 3.9 4.1 5.0 5.5 6.5 6.0 5.6 5.0 4.6 4.4 4.0 3.7 4.4 4.2 3.9 3.8 3.7 3.8 3.5 4.2 5.1 5.1 5.6 6.1 4.9 4.1 5.3 4.9 4.8 5.2 5.5 5.5 5.6
4.8 4.9 4.8 4.9 4.8 4.3 3.8 2.8 2.2 2.1 4.1 3.0 3.8 4.8 5.4 6.9 6.3 5.7 4.8 4.4 4.5 4.3 4.4 4.8 4.8 5.2 4.7 4.6 4.0 4.1 5.4 5.4 5.4 5.6 5.4 4.5 4.1 4.7 4.6 4.5 5.0 5.2 5.4
3.5 4.0 4.9 5.9 5.4 4.6 3.5 2.9 2.2 2.6 2.5 3.5 3.5 4.8 5.6 5.3 6.4 5.7 4.9 4.5 4.5 4.2 4.4 4.3 4.6 5.8 5.2 5.2 4.6 4.4 4.8 4.8 5.1 5.5 5.7 5.1 4.5 4.3 3.4 3.8 4.4 4.9 5.3
3.0 3.3 4.0 4.7 4.6 4.9 4.3 3.4 3.1 2.9 1.9 3.3 3.4 3.8 4.5 5.0 5.3 5.2 4.2 4.4 4.8 4.3 4.3 4.6 4.2 4.6 6.1 5.2 6.0 4.9 5.3 5.1 4.5 6.3 4.4 5.3 5.1 4.2 3.9 4.0 4.0 4.4 4.6
3.6 3.6 3.9 4.6 5.3 4.8 4.5 3.9 3.4 3.1 3.0 3.2 4.0 3.5 4.3 4.5 4.6 3.9 4.0 4.1 3.9 4.6 4.4 3.9 4.9 3.9 4.8 5.3 6.5 5.5 5.1 4.1 4.0 3.7 4.1 5.9 5.7 5.2 4.7 4.4 4.1 3.3 3.8
5.3 4.5 3.9 4.1 4.7 5.5 5.0 4.0 3.7 4.6 3.2 2.9 4.5 5.3 4.3 4.4 4.9 4.2 3.8 3.9 4.0 4.3 4.7 4.7 4.8 4.3 4.5 4.0 4.8 4.9 4.3 3.8 3.7 3.8 3.7 3.5 3.9 5.0 5.4 4.8 5.0 4.0 3.7
7.2 7.8 6.9 5.5 5.3 6.1 5.9 4.8 4.5 4.2 3.8 4.4 4.8 5.2 5.5 5.3 4.7 4.2 4.2 3.9 4.1 4.2 3.8 4.4 5.2 4.6 4.6 3.6 4.3 4.5 5.6 5.3 4.2 5.1 4.7 4.9 4.0 4.3 4.5 4.4 4.5 4.3 3.9
7.9 7.1 7.1 7.3 6.4 6.4 6.2 5.5 5.1 4.5 4.3 4.6 4.5 5.3 5.2 5.2 5.3 5.2 4.3 4.3 4.2 4.2 4.3 4.5 4.6 4.9 4.9 3.8 4.3 4.8 5.4 5.6 4.6 4.2 4.2 4.7 5.0 4.9 4.5 5.1 4.0 4.4 4.6
8.0 6.0 5.2 7.0 7.2 7.5 6.5 5.5 5.4 5.4 5.7 4.4 4.5 4.5 4.7 4.9 4.7 5.5 5.2 4.4 4.4 4.3 4.7 4.9 4.5 4.5 4.7 4.7 4.1 4.7 4.6 3.8 5.1 4.7 3.4 2.5 3.1 3.5 3.8 3.8 4.1 3.9 4.0
7.7 6.1 5.1 5.6 6.3 6.9 7.1 5.4 4.8 4.8 4.3 4.5 4.7 5.2 4.8 4.9 5.3 5.8 6.0 5.8 4.4 4.2 5.0 4.9 4.8 4.5 4.7 5.4 4.8 4.1 4.9 5.3 4.7 4.6 6.5 4.8 3.0 2.3 3.2 3.4 3.7 3.5 4.3
6.3 5.3 4.5 4.3 5.7 6.8 6.8 5.6 5.5 4.7 4.8 4.5 4.7 4.8 4.8 4.5 5.1 4.9 5.8 6.2 5.5 4.3 4.3 4.7 4.9 4.7 4.3 4.8 4.6 4.4 5.3 4.6 4.9 4.1 3.8 3.8 4.8 4.8 2.9 2.9 2.9 3.0 3.4
Wind_Speed
4 7 14 14 13 11 13 15 15 14 13 12 11 12 12 12 13 14 12 12 12 12 12 13 12 11 13 14 13 16 15 14 15 14 14 13 13 14 15 17 14 16 18
4 8 12 14 13 13 12 12 12 14 14 13 12 11 11 12 12 13 13 12 10 10 11 11 14 12 12 13 13 14 12 12 13 15 15 13 13 14 15 15 15 17 15
9 7 13 15 13 12 11 12 13 13 13 11 12 13 10 10 11 10 11 11 11 10 8 14 14 12 12 12 11 10 10 9 10 14 17 13 15 18 18 16 15 14 14
12 3 9 15 14 12 11 11 13 13 12 11 10 12 10 9 9 10 9 10 9 9 14 15 14 12 11 10 7 6 6 6 5 6 9 15 12 13 14 14 14 13 13
10 14 4 13 14 11 10 11 12 13 12 11 10 10 13 8 8 7 11 8 10 10 16 15 14 13 11 9 6 4 3 5 8 2 11 15 13 11 12 11 12 12 12
8 14 2 12 12 13 11 9 11 13 13 12 12 11 12 12 8 7 8 9 12 16 16 14 14 13 12 10 6 3 2 3 7 12 15 14 12 10 10 11 11 11 11
8 13 9 6 7 10 12 10 9 11 12 12 11 11 10 12 10 8 7 9 14 17 15 13 12 12 11 10 7 3 1 3 8 8 15 14 11 9 9 10 10 10 10
7 12 14 1 6 7 10 12 11 11 11 11 11 10 11 11 10 10 10 12 16 16 15 14 13 12 11 10 7 5 4 1 6 8 13 13 11 9 9 9 8 8 8
8 9 13 15 3 7 9 10 12 12 12 13 11 12 11 9 10 10 12 14 17 17 16 15 14 12 11 10 9 7 6 4 1 5 10 13 11 9 8 8 7 7 7
5 6 7 10 12 6 9 12 13 13 14 14 14 13 11 11 11 10 11 14 16 17 16 16 15 13 12 11 12 8 7 5 5 4 13 14 13 10 8 8 7 7 6
5 6 5 6 9 10 7 12 16 17 16 15 15 14 13 13 13 13 14 15 17 17 17 16 15 13 12 12 12 10 8 8 7 5 15 16 14 11 10 9 8 8 7
6 6 6 4 6 8 9 10 14 14 15 15 14 14 14 14 14 14 17 19 19 18 18 16 15 15 13 12 12 11 11 10 9 6 15 18 15 13 11 10 9 8 8
4 3 6 6 8 6 5 8 7 9 11 12 16 15 15 13 14 13 13 14 15 19 13 13 13 13 12 12 11 12 14 13 12 10 16 19 17 14 13 12 11 11 10
7 7 7 7 6 8 9 6 8 4 7 8 13 16 13 9 9 9 10 12 13 14 13 13 10 12 13 14 13 12 14 13 14 13 18 23 20 17 16 16 15 14 13
7 7 8 7 7 6 6 7 7 5 6 10 12 16 17 9 7 9 10 13 13 14 14 10 11 10 9 12 13 12 12 13 14 13 17 23 21 20 19 18 18 17 16
8 8 8 7 7 7 6 7 5 8 10 9 9 13 19 16 9 7 8 8 10 15 15 13 9 8 8 10 7 12 12 13 16 13 16 20 25 23 21 20 20 20 19
8 8 7 7 7 7 8 7 5 9 12 5 7 13 14 19 13 9 8 8 10 16 16 14 11 11 7 7 8 5 10 11 11 13 14 17 19 25 24 22 22 21 21
13 14 14 8 8 8 7 6 4 8 9 10 10 13 15 14 17 8 7 8 14 14 12 8 8 9 8 9 7 7 5 7 9 11 14 15 16 16 21 24 23 22 22
13 13 15 14 12 9 8 6 7 8 5 9 13 11 13 13 11 8 7 6 13 9 9 9 7 6 9 7 8 7 6 6 6 10 8 12 17 16 16 22 27 25 25
14 15 15 13 14 11 6 5 4 5 5 9 8 10 14 11 13 6 4 5 7 8 8 8 9 5 4 5 6 6 5 5 5 6 5 10 14 15 18 18 19 20 27
13 14 15 17 16 11 6 3 4 6 4 5 7 11 11 12 12 8 7 8 7 8 10 10 8 7 5 3 2 1 3 5 6 5 4 5 6 11 15 15 16 16 17
14 15 16 16 16 12 8 4 4 3 4 4 5 9 12 10 10 6 8 8 12 8 8 9 10 5 6 6 4 2 3 4 5 7 6 8 10 8 8 13 15 17 16
18 16 17 16 15 13 11 6 3 3 1 1 3 6 6 8 10 9 7 8 10 10 9 10 10 12 8 5 8 4 3 5 1 4 12 11 13 9 9 10 13 15 17
19 16 16 16 13 13 11 8 7 5 6 3 3 4 5 6 7 8 8 7 10 9 12 11 9 10 7 8 4 8 4 3 3 2 3 4 7 7 9 8 9 13 17
18 17 16 15 13 12 11 8 5 5 4 3 3 6 5 5 8 11 11 10 9 8 10 12 10 11 10 8 5 3 9 8 7 6 8 4 2 5 7 8 9 7 17
16 16 16 15 13 10 5 7 6 7 6 4 4 4 4 4 5 8 11 12 10 8 9 10 12 12 11 10 7 8 6 4 5 5 7 5 6 6 5 6 6 7 12
Wind_Direction
358 192 160 151 149 149 148 148 145 140 138 132 128 124 118 118 123 123 120 120 119 120 123 122 111 91 89 92 88 81 85 88 95 95 89 82 74 72 107 97 90 88 81
327 207 174 155 151 154 158 149 151 146 146 147 136 131 128 126 128 127 125 127 129 130 134 125 105 100 90 88 75 82 91 102 105 105 97 88 79 83 95 96 96 89 82
338 227 180 157 156 152 161 161 159 156 157 154 152 144 137 142 138 137 138 138 135 138 136 123 112 103 98 91 91 93 96 107 119 117 109 94 84 90 88 91 85 84 85
353 162 165 162 165 163 163 170 168 167 168 166 165 153 140 158 157 156 154 149 136 139 125 119 112 113 106 102 101 100 103 86 72 87 99 106 97 88 88 87 92 89 87
1 2 199 174 168 168 173 173 179 177 178 174 167 166 143 169 172 179 174 163 145 137 123 126 127 126 121 115 113 106 82 54 13 89 125 105 97 95 98 96 93 91 90
358 2 16 186 186 173 177 188 180 182 185 179 176 181 161 167 188 191 174 162 140 131 132 133 134 135 132 131 130 121 68 40 38 105 119 110 108 111 108 104 103 100 98
7 3 19 203 202 188 180 185 190 188 183 185 192 181 175 168 186 193 187 177 152 142 142 143 145 146 144 145 150 154 168 6 30 120 116 117 115 115 110 107 104 103 104
15 8 6 134 209 205 194 188 192 197 197 194 200 197 184 176 190 197 192 188 162 156 155 156 157 156 157 158 160 178 217 311 45 130 128 125 128 130 125 119 115 113 113
20 14 7 9 217 213 213 209 204 201 202 208 210 203 192 186 201 201 196 189 175 168 165 165 168 170 175 180 177 188 214 215 238 150 142 140 142 144 139 135 129 127 128
7 11 355 9 8 329 230 219 215 210 210 210 212 213 190 194 206 214 204 194 183 176 169 170 176 180 183 185 178 197 217 226 236 168 164 157 157 160 159 155 152 151 151
342 334 345 349 351 343 343 232 223 219 218 216 214 206 200 202 205 206 204 202 196 186 177 177 181 183 183 180 187 198 216 221 222 171 162 169 168 172 175 177 179 176 173
320 317 312 323 319 325 324 333 220 216 213 214 211 205 201 209 210 203 203 203 200 195 187 184 188 190 190 191 197 205 218 226 227 218 182 178 176 183 188 193 197 197 196
276 302 308 304 296 299 303 303 300 219 210 215 209 205 203 210 215 212 201 201 194 194 187 190 192 195 197 199 206 211 222 232 232 210 185 183 183 191 199 204 209 212 214
288 274 277 277 279 276 283 279 278 251 240 212 215 207 198 208 208 198 194 191 186 186 184 186 192 200 208 215 213 217 228 228 232 206 189 189 191 195 204 209 214 220 223
278 268 264 265 256 258 260 274 277 262 227 239 219 214 205 204 212 198 192 187 190 184 190 188 192 199 212 226 220 214 223 226 228 198 197 198 200 201 206 213 218 222 226
269 275 270 266 263 252 240 252 264 274 267 237 242 225 217 207 208 197 189 185 189 188 192 191 194 198 210 215 222 214 221 222 222 207 200 207 206 207 210 215 221 225 228
312 294 280 270 251 244 243 242 245 258 273 253 242 255 242 217 209 191 182 186 193 193 194 194 197 202 205 212 223 220 217 219 221 229 212 208 213 215 216 217 223 226 230
342 338 321 296 277 259 238 238 238 246 252 264 255 256 238 235 203 197 182 191 192 191 195 202 194 204 201 206 212 216 217 219 224 225 227 208 208 214 221 222 224 228 231
329 324 318 313 287 260 255 233 233 239 240 249 251 251 258 245 240 203 190 194 192 194 195 202 204 190 200 193 208 214 215 214 219 234 222 226 218 215 213 226 226 228 230
322 315 311 308 304 279 250 246 240 237 245 246 248 247 250 248 234 233 221 200 197 197 197 198 200 199 188 193 201 204 211 223 221 229 233 230 234 219 217 218 223 230 233
306 303 303 300 297 294 266 232 236 237 227 234 238 240 244 251 248 224 223 220 212 201 198 201 201 203 211 161 127 285 262 237 237 234 222 235 243 238 227 219 219 219 225
312 303 297 287 285 287 271 216 211 204 214 209 218 228 232 246 253 233 222 219 218 209 207 197 195 188 212 175 184 124 226 255 247 239 233 239 238 229 232 230 220 220 221
325 318 310 288 278 282 287 254 237 257 301 257 240 224 217 233 252 247 222 224 225 219 206 199 201 202 208 190 198 159 193 218 136 230 236 236 237 231 238 238 223 222 224
328 318 311 305 278 279 285 255 212 226 235 218 230 236 216 225 249 255 244 226 237 224 214 207 204 200 190 211 194 218 215 118 226 279 251 226 232 234 232 233 235 231 227
328 321 315 308 280 269 273 255 223 216 230 230 255 247 240 246 251 255 253 239 227 226 220 211 213 209 208 211 196 159 222 223 232 241 268 258 272 226 230 227 227 225 231
331 327 321 306 295 266 286 260 221 226 230 242 255 258 252 246 248 251 252 245 235 218 221 222 216 208 210 213 203 211 210 185 197 220 235 244 251 257 234 229 224 226 222